NWI511 BIKF-BIHU

Flight info

Callsign NWI511
Flight time N/A
Altitude 21000
Route LUTER3C LUTER DCT NB DCT GUGSI
Aircraft NWI/M-SDFGR/S

Departure

Time 2026-04-30 22:41
Airport Keflavik International Airport (BIKF)

Arrival

Time N/A
Airport Húsavík Airport (BIHU)
Time Latitude Longitude Altitude Speed Heading
2026-04-30 22:12 63.97312 -22.59172 171 ft 0 kts 114°
2026-04-30 22:29 63.97318 -22.59202 170 ft 2 kts 114°
2026-04-30 22:30 63.97311 -22.59337 170 ft 2 kts 22°
2026-04-30 22:31 63.97301 -22.59346 169 ft 0 kts 22°
2026-04-30 22:34 63.97405 -22.59257 172 ft 16 kts 18°
2026-04-30 22:35 63.97609 -22.59078 175 ft 12 kts 25°
2026-04-30 22:36 63.98013 -22.58853 174 ft 12 kts 338°
2026-04-30 22:36 63.98116 -22.58952 174 ft 18 kts 336°
2026-04-30 22:37 63.98521 -22.59294 172 ft 22 kts 357°
2026-04-30 22:37 63.98646 -22.59300 171 ft 10 kts 360°
2026-04-30 22:37 63.98811 -22.59352 166 ft 12 kts 341°
2026-04-30 22:38 63.98943 -22.59534 163 ft 8 kts 322°
2026-04-30 22:38 63.99087 -22.59856 160 ft 16 kts 315°
2026-04-30 22:39 63.99159 -22.60018 158 ft 13 kts 305°
2026-04-30 22:39 63.99173 -22.60357 158 ft 5 kts 269°
2026-04-30 22:40 63.99136 -22.60545 158 ft 0 kts 181°
2026-04-30 22:41 63.98285 -22.60542 256 ft 106 kts 184°
2026-04-30 22:41 63.96674 -22.60689 1143 ft 131 kts 192°
2026-04-30 22:42 63.93882 -22.57701 3799 ft 155 kts 113°
2026-04-30 22:43 63.93231 -22.52907 4726 ft 169 kts 124°
2026-04-30 22:43 63.92406 -22.47696 5670 ft 190 kts 111°
2026-04-30 22:44 63.91754 -22.41903 6084 ft 196 kts 115°
2026-04-30 22:45 63.90505 -22.35338 6022 ft 204 kts 124°
2026-04-30 22:45 63.89222 -22.28843 6036 ft 243 kts 122°
2026-04-30 22:46 63.87848 -22.21748 6024 ft 250 kts 122°
2026-04-30 22:47 63.85041 -22.07357 6016 ft 248 kts 122°
2026-04-30 22:47 63.83773 -22.00085 5987 ft 260 kts 105°
2026-04-30 22:48 63.84375 -21.91879 6017 ft 264 kts 85°
2026-04-30 22:49 63.85245 -21.80859 6010 ft 267 kts 86°
2026-04-30 22:49 63.86184 -21.68501 6015 ft 264 kts 86°
2026-04-30 22:50 63.87407 -21.52102 6027 ft 264 kts 86°
2026-04-30 22:51 63.88006 -21.43978 6279 ft 256 kts 86°
2026-04-30 22:51 63.89232 -21.36480 6766 ft 257 kts 67°
2026-04-30 22:52 63.90059 -21.32913 7021 ft 256 kts 67°
2026-04-30 22:52 63.91679 -21.25903 7529 ft 255 kts 68°
2026-04-30 22:53 63.93321 -21.18728 8050 ft 258 kts 68°
2026-04-30 22:53 63.94978 -21.11455 8573 ft 261 kts 68°
2026-04-30 22:53 63.95816 -21.07745 8841 ft 263 kts 68°
2026-04-30 22:54 63.97492 -21.00345 9364 ft 267 kts 68°
2026-04-30 22:55 64.00069 -20.88900 10159 ft 274 kts 68°